Left ArrowRight Arrow

31.84235, -102.49876

Hourly Observations for June 16, 2024

Temp ( °F °C ) Dew Point ( °F °C ) Humidity (%) Winds ( mph kmh ) Pressure ( in mb ) Visibility ( mi km ) Precip ( " mm )
12:53 am 00:53 Clear 85 29.4 57 13.9 39 39 SE 14 22 29.71 1006 10 16 0.00 0.00
1:53 am 01:53 Clear 83 28.3 58 14.4 43 43 S 18 30 29.68 1005 10 16 0.00 0.00
2:53 am 02:53 Clear 83 28.3 58 14.4 43 43 S 15 24 29.65 1004 10 16 0.00 0.00
3:53 am 03:53 Clear 82 27.8 58 14.4 44 44 SE 14 22 29.66 1005 10 16 0.00 0.00
4:53 am 04:53 Clear 79 26.1 59 15 50 50 ENE 14 22 29.72 1006 10 16 0.00 0.00
5:53 am 05:53 Clear 78 25.6 61 16.1 56 56 E 13 20 29.72 1007 10 16 0.00 0.00
6:53 am 06:53 Sunny 77 25 64 17.8 64 64 SE 16 26 29.72 1007 10 16 0.00 0.00
7:53 am 07:53 Sunny 76 24.4 65 18.3 69 69 SE 18 30 29.72 1007 10 16 0.00 0.00
8:53 am 08:53 Sunny 78 25.6 63 17.2 60 60 SSE 24 39 29.72 1007 10 16 0.00 0.00
9:53 am 09:53 Sunny 80 26.7 63 17.2 56 56 SSE 22 35 29.72 1006 10 16 0.00 0.00
10:53 am 10:53 Sunny 83 28.3 65 18.3 55 55 S 21 33 29.72 1006 10 16 0.00 0.00
11:53 am 11:53 Sunny 87 30.6 66 18.9 50 50 S 17 28 29.71 1006 10 16 0.00 0.00
12:53 pm 12:53 Sunny 90 32.2 65 18.3 44 44 S 17 28 29.69 1005 10 16 0.00 0.00
1:53 pm 13:53 Sunny 94 34.4 64 17.8 37 37 S 16 26 29.66 1004 10 16 0.00 0.00
2:53 pm 14:53 Sunny 96 35.6 62 16.7 33 33 S 13 20 29.63 1004 10 16 0.00 0.00
3:53 pm 15:53 Sunny 99 37.2 61 16.1 29 29 S 13 20 29.61 1003 10 16 0.00 0.00
4:53 pm 16:53 Sunny 99 37.2 59 15 27 27 S 13 20 29.60 1002 10 16 0.00 0.00
5:53 pm 17:53 Sunny 100 37.8 59 15 26 26 SSE 18 30 29.58 1002 10 16 0.00 0.00
6:53 pm 18:53 Sunny 99 37.2 56 13.3 24 24 SE 15 24 29.57 1001 10 16 0.00 0.00
7:53 pm 19:53 Sunny 97 36.1 57 13.9 27 27 SSE 20 31 29.57 1001 10 16 0.00 0.00
8:53 pm 20:53 Sunny 94 34.4 59 15 31 31 SE 23 37 29.58 1002 10 16 0.00 0.00
9:53 pm 21:53 Clear 90 32.2 60 15.6 37 37 SSE 23 37 29.60 1003 10 16 0.00 0.00
10:53 pm 22:53 Clear 89 31.7 58 14.4 35 35 SSE 20 31 29.63 1003 10 16 0.00 0.00
11:53 pm 23:53 Clear 87 30.6 58 14.4 37 37 SSE 16 26 29.65 1004 10 16 0.00 0.00

Powered by Vaisala Xweather